Regional Weather Roundup
Issued by NWS

Home | Current Version | Previous Version | Graphics & Text | Print | Product List | Glossary On
Versions: 1 2 3 4 5 6 7 8 9 10 11 12 13 14 15 16 17 18 19 20 21 22 23 24 25 26 27 28
000
ASUS45 KSLC 300910
RWRUT

UTAH REGIONAL WEATHER ROUNDUP
NATIONAL WEATHER SERVICE SALT LAKE CITY UT
300 AM MDT MON MAY 30 2016

UTZ001>011-023>025-301000-

NORTHERN UTAH

CITY           SKY/WX    TMP DP  RH WIND       PRES   REMARKS
BRIGHAM CITY     N/A     59  49  69 N3        30.08S
HILL AFB       CLOUDY    58  46  64 S13       30.10S
LOGAN          MOCLDY    53  47  79 E5        30.07S
OGDEN          CLOUDY    57  47  69 SE12      30.08F
PROVO AIRPORT  MOCLDY    59  46  63 NW21      30.11R
SALT LAKE CITY CLOUDY    60  50  69 SE9       30.12R
VERNAL         CLOUDY    50  39  66 W6        30.09R
WENDOVER       PTCLDY    57  46  67 NW5       30.08S
HEBER CITY     CLOUDY    52  43  71 CALM      30.17R
WEST JORDAN    CLOUDY    57  48  72 SW5       30.16R

$$

UTZ012>022-026-027-301000-

SOUTHERN/CENTRAL UTAH

CITY           SKY/WX    TMP DP  RH WIND       PRES   REMARKS
BLANDING       CLEAR     57  27  31 CALM      30.12S
BRYCE CANYON   PTCLDY    38  29  70 CALM      30.20S
CEDAR CITY     PTCLDY    49  35  58 E3        30.08S
DELTA          MOCLDY    55  41  58 NE10      30.10R
HANKSVILLE     CLEAR     52  28  40 CALM      30.03F
MILFORD        PTCLDY    47  34  60 NW3       30.06S
MOAB/CYNLANDS  PTCLDY    56  33  42 SW5       30.00R
PRICE          PTCLDY    49  29  46 N6        30.08S
ST GEORGE      PTSUNNY   70  28  21 S8        29.94S
KANAB          PTCLDY    55  34  44 N6        30.09S

$$

REGIONAL REPORTS     COLORADO/ARIZONA

CITY           SKY/WX    TMP DP  RH WIND       PRES   REMARKS
CRAIG, CO      CLOUDY    40  36  86 CALM      30.13F
GRAND JUNCTION CLOUDY    53  36  52 NE3       30.04S
RIFLE          CLOUDY    46  36  68 E3        30.10F
MONTROSE       CLOUDY    47  33  58 SE6       30.10F
CORTEZ         CLEAR     41  29  62 CALM      30.09R
PAGE, AZ       PTCLDY    71  30  21 W3        29.98S
GRAND CANYON   CLEAR     36  15  42 CALM      30.17F
KINGMAN        CLEAR     57  22  25 CALM      29.98S
FLAGSTAFF      PTCLDY    38  17  42 W5        30.17S WCI  34

$$

REGIONAL REPORTS    NEVADA/IDAHO/WYOMING

CITY           SKY/WX    TMP DP  RH WIND       PRES   REMARKS
LAS VEGAS, NV  CLEAR     77  20  12 CALM      29.86R
ELY            PTCLDY    45  37  73 S10       30.15S
ELKO           CLEAR     53  41  63 E7        30.10R
POCATELLO, ID  CLOUDY    46  41  82 W6        30.05R
BURLEY         MOCLDY    55  45  68 SW9       30.03S
EVANSTON, WY   CLOUDY    42  39  89 SE6       30.21F
ROCK SPRINGS   CLOUDY    44  38  79 W3        30.17F
KEMMERER         N/A     45  37  76 SE8       30.17F

$$




USA.gov is the U.S. government's official web portal to all federal, state and local government web resources and services.